[[{"header":{"parameterUnit":"m.s-1","parameterCategory":1,"la1":30.2991,"la2":30.254,"lo1":-89.0895,"lo2":-89.0444,"dx":0.0017,"dy":0.0017,"nx":28,"ny":28,"refTime":"2023-02-06T09:00:00:Z","depth":0,"parameterNumber":2,"parameterNumberName":"U-component_of_WINDS"},"data":[0,0,0,0,0,0,0,0,0,0,0,0,0,0,0,0,0,0,0,0,0,0,0,0,0,0,0,0,0,0,0,0,0,0,0,0,0,0,0,0,0,0,0,0,0,0,0,0,0,0,0,0,0,0,0,0,0,0,-1.7328,-1.7329,0,-1.7361,-1.7361,-1.7361,-1.7303,-1.7301,-1.7299,-1.7297,-1.7331,-1.7334,-1.7336,0,0,0,0,0,0,0,0,0,0,0,0,0,-1.7217,-1.7219,-1.7328,-1.7329,-1.7329,-1.736,-1.7361,-1.7361,-1.7303,-1.7301,-1.7299,-1.7296,-1.733,-1.7333,-1.7337,0,0,0,0,0,0,0,0,0,0,0,0,0,-1.7259,-1.722,-1.7328,-1.7304,-1.7302,-1.736,-1.7361,-1.7361,-1.7304,-1.7301,-1.7298,-1.7295,-1.7329,-1.7333,-1.7337,-1.7421,0,0,-1.735,-1.7351,0,0,0,0,0,0,0,0,-1.7257,-1.7263,-1.7307,-1.7306,-1.7304,-1.7325,-1.7334,-1.7381,-1.7305,-1.7303,-1.7297,-1.7294,-1.7331,-1.7335,-1.7348,-1.7422,-1.7424,-1.735,-1.7352,-1.7354,-1.7355,0,0,0,0,0,0,0,-1.7254,-1.7261,-1.7341,-1.7308,-1.7306,-1.7292,-1.7294,-1.7343,-1.7333,-1.7303,-1.7299,-1.7304,-1.733,-1.7344,-1.7348,-1.7424,-1.735,-1.7353,-1.7356,-1.7358,-1.7569,-1.7572,0,0,0,0,0,0,-1.7254,-1.7259,-1.734,-1.7342,-1.7273,-1.7296,-1.7299,-1.7321,-1.7333,-1.7332,-1.7306,-1.7301,-1.7338,-1.7343,-1.7349,-1.7447,-1.7354,-1.7358,-1.736,-1.7565,-1.7569,-1.7573,0,0,0,0,0,0,-1.7252,-1.7262,-1.7339,-1.73,-1.7308,-1.7301,-1.7326,-1.7323,-1.7337,-1.7335,-1.7333,-1.7322,-1.7336,-1.7343,-1.7403,-1.7448,-1.736,-1.7363,-1.7562,-1.7567,-1.7571,-1.7645,0,0,0,0,0,0,-1.7249,-1.7261,-1.7293,-1.7301,-1.7311,-1.7393,-1.7329,-1.7326,-1.7344,-1.7337,-1.7349,-1.7348,-1.7334,-1.7397,-1.7407,-1.7452,-1.7367,-1.7558,-1.7564,-1.7569,-1.7639,-1.7652,-1.7663,0,0,0,0,0,-1.7245,-1.7313,-1.7295,-1.7305,-1.735,-1.7395,-1.7401,-1.7383,-1.7348,-1.738,-1.7378,-1.7348,-1.7441,-1.7404,-1.7415,-1.7461,-1.7555,-1.7562,-1.7569,-1.7633,-1.7649,-1.7663,0,0,0,0,0,0,-1.7311,-1.7314,-1.7294,-1.7366,-1.7381,-1.7385,-1.7425,-1.7401,-1.7426,-1.7419,-1.7396,-1.74,-1.7464,-1.7468,-1.7427,-1.7542,-1.7492,-1.7502,-1.7537,-1.7552,-1.7564,-1.7562,-1.737,0,0,0,0,0,-1.7334,-1.737,-1.737,-1.7434,-1.7443,-1.7433,-1.7452,-1.7437,-1.7451,-1.7458,-1.746,-1.7476,-1.7508,-1.753,-1.756,-1.7639,-1.764,-1.7676,-1.7688,-1.7698,-1.7707,-1.7748,-1.7763,-1.7596,-1.7596,-1.7596,0,0,-1.7382,-1.7388,-1.7412,-1.7448,-1.7458,-1.7496,-1.7439,-1.7482,-1.751,-1.7464,-1.7521,-1.7523,-1.7539,-1.7608,-1.7639,-1.7614,-1.7753,-1.7707,-1.7715,-1.7718,-1.7757,-1.7772,-1.7787,-1.7601,-1.76,-1.7599,0,0,-1.7489,-1.7497,-1.7551,-1.7561,-1.7577,-1.7569,-1.7582,-1.7591,-1.759,-1.7647,-1.7613,-1.7646,-1.7703,-1.7715,-1.7729,-1.784,-1.7813,-1.785,-1.7914,-1.7954,-1.7968,-1.7979,-1.8018,-1.8033,-1.7859,-1.7859,-1.7859,0,-1.7546,-1.7602,-1.7582,-1.7627,-1.7643,-1.7603,-1.7657,-1.7669,-1.7694,-1.7706,-1.7677,-1.7747,-1.7755,-1.7826,-1.7853,-1.7866,-1.788,-1.7849,-1.7967,-1.7979,-1.7989,-1.8026,-1.8041,-1.7863,-1.7863,-1.7862,-1.7862,0,-1.7673,-1.7712,-1.7754,-1.7778,-1.7799,-1.7849,-1.7835,-1.7859,-1.7842,-1.7838,-1.7895,-1.7903,-1.7933,-1.7949,-1.7933,-1.8018,-1.8002,-1.7971,-1.792,-1.801,-1.8044,-1.8058,-1.787,-1.7868,-1.7867,-1.7866,0,0,-1.7823,-1.7834,-1.785,-1.786,-1.7873,-1.7903,-1.7951,-1.798,-1.8001,-1.8019,-1.8058,-1.8107,-1.8078,-1.8093,-1.8078,-1.8114,-1.82,-1.8078,-1.8078,-1.81,-1.8294,-1.8318,-1.8334,-1.8182,-1.8185,-1.8187,-1.8293,0,-1.7929,-1.801,-1.7992,-1.8073,-1.8109,-1.8071,-1.8112,-1.8125,-1.8122,-1.8152,-1.8148,-1.8183,-1.8142,-1.8151,-1.8185,-1.8183,-1.8239,-1.8175,-1.8218,-1.822,-1.8216,-1.8352,-1.8378,-1.8477,-1.8306,-1.8308,-1.831,0,-1.8063,-1.8086,-1.817,-1.8177,-1.8191,-1.8229,-1.8254,-1.8283,-1.8296,-1.8292,-1.8309,-1.8287,-1.8333,-1.8282,-1.8346,-1.8303,-1.8319,-1.8321,-1.8325,-1.8328,-1.8271,-1.836,-1.8508,-1.8523,-1.8331,-1.8329,-1.8328,0,-1.8164,-1.8215,-1.8272,-1.8282,-1.8292,-1.8319,-1.8324,-1.8335,-1.8353,-1.8375,-1.8387,-1.8414,-1.8429,-1.8451,-1.8437,-1.84,-1.8503,-1.845,-1.85,-1.8501,-1.8524,-1.8523,-1.8678,-1.8535,-1.8535,-1.8535,-1.8534,0,-1.8284,-1.8337,-1.8317,-1.8352,-1.841,-1.8389,-1.8447,-1.8448,-1.8457,-1.8491,-1.846,-1.8493,-1.8472,-1.8503,-1.8492,-1.8547,-1.8554,-1.8551,-1.8548,-1.8554,-1.8555,-1.8565,-1.8558,-1.8538,-1.8538,-1.8537,-1.8536,0,-1.8407,-1.8396,-1.8455,-1.8459,-1.8461,-1.8504,-1.8507,-1.8539,-1.8534,-1.8578,-1.8587,-1.8578,-1.8613,-1.8601,-1.8638,-1.8631,-1.87,-1.8688,-1.8696,-1.8692,-1.8743,-1.8738,-1.891,-1.8931,-1.8775,-1.8777,-1.8778,0,-1.8484,-1.8524,-1.8532,-1.8553,-1.856,-1.8594,-1.8612,-1.8593,-1.8613,-1.8631,-1.8661,-1.8693,-1.8718,-1.8775,-1.8773,-1.8801,-1.8789,-1.8847,-1.8793,-1.8798,-1.8789,-1.8787,-1.8791,-1.8858,-1.886,-1.8861,-1.8862,0,-1.8623,-1.8615,-1.8643,-1.8669,-1.8692,-1.8712,-1.8729,-1.8747,-1.8729,-1.8753,-1.8788,-1.8808,-1.8845,-1.8877,-1.8903,-1.8908,-1.8882,-1.8879,-1.8892,-1.8899,-1.8902,-1.8901,-1.8725,-1.8875,-1.8874,-1.8873,-1.8872,-1.8872,-1.8725,-1.8758,-1.8769,-1.8801,-1.8811,-1.8828,-1.8858,-1.8856,-1.8885,-1.8914,-1.8901,-1.8941,-1.8953,-1.8984,-1.8993,-1.9024,-1.9001,-1.902,-1.9025,-1.903,-1.9036,-1.8897,-1.9028,-1.9028,-1.9028,-1.9027,-1.9027,0,-1.8862,-1.8867,-1.8896,-1.892,-1.8946,-1.8919,-1.8936,-1.8959,-1.8994,-1.9007,-1.9032,-1.9072,-1.9103,-1.9102,-1.913,-1.9156,-1.9144,-1.9164,-1.9162,-1.9163,-1.9055,-1.9041,-1.9172,-1.9172,-1.9172,-1.9172,-1.9172,-1.9172,-1.8936,-1.899,-1.8984,-1.9043,-1.9048,-1.9087,-1.9099,-1.9114,-1.9124,-1.917,-1.9195,-1.9194,-1.9201,-1.923,-1.9257,-1.9256,-1.9268,-1.9291,-1.9286,-1.9185,-1.9171,-1.9157,-1.9144,-1.9294,-1.9294,-1.9391,-1.9392,-1.9393]},{"header":{"parameterUnit":"m.s-1","parameterCategory":1,"la1":30.2991,"la2":30.254,"lo1":-89.0895,"lo2":-89.0444,"dx":0.0017,"dy":0.0017,"nx":28,"ny":28,"refTime":"2023-02-06T09:00:00:Z","depth":0,"parameterNumber":3,"parameterNumberName":"V-component_of_WINDS"},"data":[0,0,0,0,0,0,0,0,0,0,0,0,0,0,0,0,0,0,0,0,0,0,0,0,0,0,0,0,0,0,0,0,0,0,0,0,0,0,0,0,0,0,0,0,0,0,0,0,0,0,0,0,0,0,0,0,0,0,-2.6545,-2.6546,0,-2.6611,-2.6611,-2.6612,-2.6589,-2.6588,-2.6586,-2.6585,-2.6648,-2.665,-2.6653,0,0,0,0,0,0,0,0,0,0,0,0,0,-2.6396,-2.6399,-2.6545,-2.6546,-2.6547,-2.661,-2.6611,-2.6612,-2.659,-2.6588,-2.6586,-2.6584,-2.6647,-2.665,-2.6654,0,0,0,0,0,0,0,0,0,0,0,0,0,-2.6461,-2.64,-2.6545,-2.6543,-2.6544,-2.661,-2.6611,-2.6612,-2.659,-2.6588,-2.6586,-2.6584,-2.6645,-2.665,-2.6654,-2.6725,0,0,-2.6668,-2.667,0,0,0,0,0,0,0,0,-2.6457,-2.6466,-2.6543,-2.6544,-2.6544,-2.659,-2.6582,-2.665,-2.6591,-2.6572,-2.6585,-2.6583,-2.663,-2.6635,-2.6652,-2.6728,-2.673,-2.6668,-2.6671,-2.6673,-2.6674,0,0,0,0,0,0,0,-2.6453,-2.6463,-2.6571,-2.6544,-2.6545,-2.6538,-2.6545,-2.6594,-2.6612,-2.6574,-2.6572,-2.6581,-2.663,-2.6648,-2.6653,-2.6731,-2.6668,-2.6672,-2.6675,-2.6677,-2.6867,-2.6869,0,0,0,0,0,0,-2.6449,-2.646,-2.6569,-2.6573,-2.6495,-2.6542,-2.655,-2.6577,-2.6612,-2.6615,-2.6582,-2.6579,-2.6641,-2.6648,-2.6656,-2.674,-2.6673,-2.6677,-2.668,-2.6865,-2.6868,-2.687,0,0,0,0,0,0,-2.6446,-2.6459,-2.6566,-2.6516,-2.6529,-2.6547,-2.6578,-2.658,-2.6598,-2.6618,-2.6621,-2.6598,-2.664,-2.6649,-2.6708,-2.6742,-2.6679,-2.6683,-2.6862,-2.6866,-2.6869,-2.691,0,0,0,0,0,0,-2.6441,-2.6458,-2.6486,-2.6517,-2.6532,-2.6619,-2.658,-2.6582,-2.6606,-2.6603,-2.6634,-2.6636,-2.6639,-2.6701,-2.6712,-2.6747,-2.6687,-2.6859,-2.6864,-2.6868,-2.6906,-2.6915,-2.6922,0,0,0,0,0,-2.6436,-2.6494,-2.6487,-2.6501,-2.6568,-2.6621,-2.6629,-2.6632,-2.6609,-2.6637,-2.665,-2.6635,-2.6737,-2.6708,-2.672,-2.6756,-2.6857,-2.6862,-2.6867,-2.6902,-2.6913,-2.6922,0,0,0,0,0,0,-2.6465,-2.6498,-2.6491,-2.6561,-2.6589,-2.6617,-2.6652,-2.6644,-2.6677,-2.6673,-2.6673,-2.668,-2.6741,-2.6754,-2.6721,-2.6826,-2.6793,-2.6801,-2.6815,-2.6826,-2.6834,-2.6829,-2.669,0,0,0,0,0,-2.6479,-2.6521,-2.6548,-2.6607,-2.6621,-2.6634,-2.6658,-2.6658,-2.6685,-2.6697,-2.6714,-2.674,-2.6778,-2.6802,-2.6838,-2.6908,-2.6913,-2.6939,-2.6947,-2.6954,-2.696,-2.6997,-2.7009,-2.6888,-2.6888,-2.6888,0,0,-2.651,-2.6533,-2.6559,-2.6613,-2.6634,-2.6676,-2.6644,-2.669,-2.6721,-2.6703,-2.676,-2.6773,-2.6802,-2.6867,-2.6896,-2.688,-2.6995,-2.696,-2.6966,-2.6969,-2.7004,-2.7016,-2.7026,-2.6891,-2.6891,-2.689,0,0,-2.6586,-2.6609,-2.666,-2.6683,-2.6716,-2.6725,-2.6737,-2.6767,-2.6776,-2.6833,-2.6821,-2.6856,-2.6921,-2.6943,-2.6962,-2.7047,-2.7034,-2.7058,-2.7101,-2.7137,-2.7146,-2.7155,-2.7185,-2.7195,-2.7065,-2.7065,-2.7065,0,-2.6619,-2.6684,-2.6687,-2.6735,-2.6758,-2.6746,-2.6797,-2.6818,-2.686,-2.6876,-2.6858,-2.6939,-2.6958,-2.7027,-2.7048,-2.7064,-2.7077,-2.7054,-2.7145,-2.7154,-2.7161,-2.719,-2.7201,-2.7067,-2.7067,-2.7067,-2.7067,0,-2.6722,-2.6767,-2.6805,-2.6848,-2.6875,-2.6924,-2.6934,-2.6961,-2.6959,-2.6969,-2.7026,-2.7049,-2.7089,-2.7105,-2.7102,-2.7173,-2.7162,-2.7145,-2.7111,-2.7176,-2.7202,-2.7213,-2.7071,-2.707,-2.7069,-2.7069,0,0,-2.6819,-2.6864,-2.6878,-2.6897,-2.6933,-2.6966,-2.7014,-2.7055,-2.7078,-2.7107,-2.7147,-2.7202,-2.7186,-2.7208,-2.7207,-2.7239,-2.7304,-2.7217,-2.7218,-2.7232,-2.7383,-2.7396,-2.7408,-2.7296,-2.7298,-2.73,-2.738,0,-2.6898,-2.6984,-2.6989,-2.7066,-2.7107,-2.7095,-2.7137,-2.7162,-2.7173,-2.7207,-2.7218,-2.7257,-2.7233,-2.7247,-2.7278,-2.729,-2.7334,-2.7284,-2.7332,-2.7333,-2.7325,-2.7422,-2.7436,-2.7511,-2.7391,-2.7392,-2.7394,0,-2.7003,-2.7037,-2.7119,-2.7149,-2.7166,-2.7204,-2.7241,-2.7275,-2.7303,-2.7308,-2.7333,-2.7328,-2.7375,-2.734,-2.7405,-2.7371,-2.739,-2.7399,-2.7402,-2.7406,-2.7367,-2.7429,-2.7535,-2.7546,-2.741,-2.7409,-2.7408,0,-2.7064,-2.7131,-2.7189,-2.7206,-2.7242,-2.7268,-2.7284,-2.7311,-2.7334,-2.7366,-2.7382,-2.7418,-2.7438,-2.7466,-2.747,-2.7445,-2.7534,-2.75,-2.7539,-2.7539,-2.7558,-2.7557,-2.7668,-2.7571,-2.7571,-2.7571,-2.7571,0,-2.7152,-2.7203,-2.7217,-2.7252,-2.7308,-2.7312,-2.7366,-2.738,-2.7404,-2.744,-2.7432,-2.7466,-2.747,-2.7505,-2.7508,-2.7561,-2.757,-2.7574,-2.7574,-2.7575,-2.7574,-2.7588,-2.7582,-2.7574,-2.7573,-2.7573,-2.7572,0,-2.7231,-2.7242,-2.7304,-2.7334,-2.7343,-2.7382,-2.7407,-2.744,-2.7449,-2.7496,-2.7507,-2.7521,-2.7562,-2.7569,-2.7617,-2.7619,-2.7681,-2.7676,-2.7673,-2.7672,-2.771,-2.7706,-2.7834,-2.785,-2.7743,-2.7744,-2.7745,0,-2.7286,-2.7325,-2.7359,-2.7384,-2.7402,-2.7442,-2.7466,-2.7471,-2.7497,-2.7532,-2.7561,-2.7601,-2.7633,-2.7698,-2.7712,-2.7748,-2.7743,-2.7785,-2.7748,-2.7748,-2.7743,-2.7741,-2.7744,-2.7792,-2.7794,-2.7795,-2.7795,0,-2.7383,-2.7387,-2.7424,-2.7463,-2.7493,-2.7524,-2.7552,-2.7573,-2.7581,-2.761,-2.7653,-2.7678,-2.7727,-2.7766,-2.7802,-2.7817,-2.7807,-2.7807,-2.7818,-2.7818,-2.7815,-2.7817,-2.7692,-2.7804,-2.7803,-2.7802,-2.7802,-2.7802,-2.7451,-2.7485,-2.7515,-2.7556,-2.7578,-2.7606,-2.7638,-2.7652,-2.7688,-2.773,-2.773,-2.7776,-2.7802,-2.785,-2.7867,-2.7901,-2.7888,-2.7903,-2.7907,-2.7911,-2.7915,-2.7809,-2.7908,-2.7908,-2.7907,-2.7907,-2.7907,0,-2.7547,-2.7566,-2.7604,-2.7645,-2.7677,-2.7667,-2.7699,-2.7726,-2.7767,-2.7793,-2.7825,-2.7873,-2.7912,-2.7929,-2.7966,-2.799,-2.7987,-2.8,-2.7998,-2.8001,-2.7925,-2.7912,-2.8002,-2.8002,-2.8002,-2.8002,-2.8002,-2.8002,-2.7601,-2.7658,-2.7665,-2.7732,-2.775,-2.7796,-2.7815,-2.784,-2.786,-2.7915,-2.7948,-2.7959,-2.7981,-2.802,-2.8054,-2.8058,-2.8071,-2.8086,-2.8088,-2.8016,-2.8007,-2.7998,-2.7985,-2.8089,-2.809,-2.8162,-2.8162,-2.8163]}]]